Hourly Weather Roundup
Issued by NWS Central Illinois

Home | Current Version | Previous Version | Text Only | Print | Product List | Glossary On
Versions: 1 2 3 4 5 6 7 8 9 10 11 12 13 14 15 16 17 18 19 20 21 22 23 24 25 26 27 28 29 30 31 32 33 34 35 36 37 38 39 40 41 42 43 44 45 46 47 48 49 50
000
NZUS43 KILX 270210
HWRILX

AREA WEATHER ROUNDUP
NATIONAL WEATHER SERVICE, LINCOLN IL
900 PM CDT THU MAY 26 2016


CITY           SKY/WX    TMP DP  RH WIND       PRES   REMARKS
BLOOMINGTON    CLOUDY    74  70  87 S12       29.93R
CHAMPAIGN      CLOUDY    70  65  84 S9        29.92S
DANVILLE       CLOUDY    70  65  85 S10       29.93R
DECATUR        CLOUDY    71  64  78 S7        29.91R
EFFINGHAM      MOCLDY    69  66  90 SE7       29.96R
FLORA          MOCLDY    69  65  86 SE6       29.96R
GALESBURG      CLOUDY    75  66  75 CALM      29.89S
JACKSONVILLE   CLOUDY    75  66  75 S6        29.88S
LACON          CLOUDY    76  65  70 S5        29.88R
LAWRENCEVILLE  CLOUDY    69  66  90 S8        29.98R
LITCHFIELD     CLOUDY    69  64  85 S12       29.91R
$$


CITY           SKY/WX    TMP DP  RH WIND       PRES   REMARKS
LINCOLN        CLOUDY    74  69  84 CALM      29.89F
MACOMB         CLOUDY    75  69  81 S3        29.89F
MATTOON        MOCLDY    68  63  84 SE7       29.92S
MT CARMEL AP   CLOUDY    68  65  90 S3        29.97R
OLNEY-NOBLE AP MOCLDY    66  64  94 SE6       29.97R
PARIS          CLOUDY    67  65  91 S3        29.97R
PEORIA         CLOUDY    77  69  76 S7        29.89R
PONTIAC        CLOUDY    78  71  77 S10       29.92R HX  81
RANTOUL        CLOUDY    73  68  84 S8        29.94R
ROBINSON       MOCLDY    66  64  94 SE6       29.97R
SPRINGFIELD    CLOUDY    73  66  78 S8        29.89S
TAYLORVILLE    CLOUDY    70  65  86 SE9       29.91R
$$

...REGIONAL REPORTS...


CITY           SKY/WX    TMP DP  RH WIND       PRES   REMARKS
CHICAGO O`HARE CLOUDY    73  65  75 S5        29.88R
KANKAKEE       MOCLDY    75  66  73 S12       29.92R
MOLINE         CLOUDY    78  63  59 SW7       29.86R HX  80
MOUNT STERLING CLOUDY    73  70  88 CALM      29.87F
MOUNT VERNON   CLOUDY    68  61  77 S5        29.96R
PITTSFIELD     CLOUDY    74  69  86 CALM      29.89R
QUINCY         CLOUDY    76  70  82 SE7       29.86F
ROCKFORD       CLOUDY    75  64  68 CALM      29.90R
$$


CITY           SKY/WX    TMP DP  RH WIND       PRES   REMARKS
BURLINGTON     CLOUDY    75  68  78 CALM      29.88R
CEDAR RAPIDS   LGT RAIN  70  61  73 W20G35    29.89R
DES MOINES     LGT RAIN  64  59  83 N9        29.94F
KIRKSVILLE     HVY RAIN  66  62  87 CALM      30.01R FOG
OTTUMWA        LGT RAIN  65  59  81 NW20G30   29.89F
ST LOUIS       CLOUDY    77  66  68 S13G20    29.89R
$$


CITY           SKY/WX    TMP DP  RH WIND       PRES   REMARKS
TERRE HAUTE    CLEAR     69  63  81 S8        29.97R
EVANSVILLE     CLOUDY    68  62  81 E3        29.97S
INDIANAPOLIS   MOCLDY    69  63  81 S8        29.96R
LAFAYETTE      CLOUDY    70  64  81 S6        29.95R
MADISON        CLOUDY    69  57  65 CALM      29.87R
MILWAUKEE      CLOUDY    74  56  53 CALM      29.88R
$$






USA.gov is the U.S. government's official web portal to all federal, state and local government web resources and services.